Millington, TN

12:29 PM CST on February 12, 2016 (GMT -0600)
Millington Municipal

Weather History for KNQA - August, 2013

Change the Weather History Date:

Thursday, August 22, 2013

  Actual Average Record
Temperature  
Mean Temperature 82 °F -  
Max Temperature 93 °F 89 °F 102 °F (2007)
Min Temperature 71 °F 69 °F 60 °F (2012)
Cooling Degree Days 17    
Growing Degree Days 32 (Base 50)    
Moisture  
Dew Point 74 °F    
Average Humidity 83    
Maximum Humidity 100    
Minimum Humidity 55    
Precipitation  
Precipitation 0.00 in - - ()
Sea Level Pressure  
Sea Level Pressure 30.09 in    
Wind  
Wind Speed 1 mph (North)    
Max Wind Speed 6 mph    
Max Gust Speed -    
Visibility 9 miles    
Events      
Averages and records for this station are not official NWS values.
T = Trace of Precipitation, MM = Missing Value Source: NWS Daily Summary

Daily Weather History Graph

Daily Weather History Graph

Search for Another Location

Airport or City:

Trip Planner

Search our weather history database for the weather conditions in past years. The results will help you decide how hot, cold, wet, or windy it might be!

Date:

Astronomy

Aug. 22, 2013 Rise Set
Actual Time 6:24 AM CDT 7:39 PM CDT
Civil Twilight 5:58 AM CDT 8:05 PM CDT
Nautical Twilight 5:26 AM CDT 8:37 PM CDT
Astronomical Twilight 4:53 AM CDT 9:10 PM CDT
Moon 8:30 PM CDT (8/22) 8:07 AM CDT (8/22)
Length of Visible Light 14h 07m
Length of Day
13h 14m
Waning Gibbous, 96% of the Moon is Illuminated
Aug 22
Waning Gibbous
Aug 28
Last Quarter
Sep 5
New
Sep 12
First Quarter
Sep 19
Full

Hourly Weather History & Observations

Time (CDT) Temp. Heat Index Dew Point Humidity Pressure Visibility Wind Dir Wind Speed Gust Speed Precip Events Conditions
12:55 AM 75.2 °F - 73.4 °F 94% 30.11 in 10.0 mi Calm Calm - N/A   Partly Cloudy
1:55 AM 73.4 °F - 73.4 °F 100% 30.10 in 9.0 mi Calm Calm - N/A   Clear
2:55 AM 73.4 °F - 73.4 °F 100% 30.09 in 8.0 mi Calm Calm - N/A   Clear
3:15 AM 73.4 °F - 73.4 °F 100% 30.09 in 8.0 mi Calm Calm - N/A   Clear
3:35 AM 73.4 °F - 73.4 °F 100% 30.09 in 5.0 mi Calm Calm - N/A   Clear
3:55 AM 71.6 °F - 71.6 °F 100% 30.09 in 8.0 mi ESE 3.5 mph - N/A   Clear
4:15 AM 73.4 °F - 73.4 °F 100% 30.10 in 4.0 mi Calm Calm - N/A   Clear
4:35 AM 73.4 °F - 73.4 °F 100% 30.11 in 6.0 mi Calm Calm - N/A   Clear
4:55 AM 71.6 °F - 71.6 °F 100% 30.11 in 9.0 mi Calm Calm - N/A   Clear
5:15 AM 73.4 °F - 73.4 °F 100% 30.12 in 5.0 mi Calm Calm - N/A   Clear
5:35 AM 71.6 °F - 71.6 °F 100% 30.12 in 10.0 mi Calm Calm - N/A   Partly Cloudy
5:55 AM 73.4 °F - 73.4 °F 100% 30.12 in 10.0 mi Calm Calm - N/A   Partly Cloudy
6:55 AM 71.6 °F - 71.6 °F 100% 30.13 in 10.0 mi Calm Calm - N/A   Partly Cloudy
7:55 AM 78.8 °F - 75.2 °F 89% 30.13 in 10.0 mi Calm Calm - N/A   Partly Cloudy
8:55 AM 82.4 °F 89.5 °F 75.2 °F 79% 30.13 in 10.0 mi WSW 3.5 mph - N/A   Clear
9:55 AM 87.8 °F 97.6 °F 75.2 °F 66% 30.13 in 10.0 mi Variable 3.5 mph - N/A   Clear
10:55 AM 89.6 °F 102.2 °F 77.0 °F 66% 30.13 in 10.0 mi WNW 4.6 mph - N/A   Scattered Clouds
11:55 AM 91.4 °F 105.1 °F 77.0 °F 63% 30.11 in 10.0 mi Variable 3.5 mph - N/A   Scattered Clouds
12:55 PM 91.4 °F 100.1 °F 73.4 °F 55% 30.10 in 10.0 mi Variable 3.5 mph - N/A   Mostly Cloudy
1:55 PM 91.4 °F 102.5 °F 75.2 °F 59% 30.07 in 10.0 mi Calm Calm - N/A   Scattered Clouds
2:55 PM 93.2 °F 105.0 °F 75.2 °F 56% 30.06 in 10.0 mi ENE 5.8 mph - N/A   Scattered Clouds
3:55 PM 91.4 °F 100.1 °F 73.4 °F 55% 30.03 in 10.0 mi Variable 3.5 mph - N/A   Scattered Clouds
4:55 PM 91.4 °F 100.1 °F 73.4 °F 55% 30.02 in 10.0 mi North 4.6 mph - N/A   Scattered Clouds
5:55 PM 89.6 °F 98.2 °F 73.4 °F 59% 30.02 in 10.0 mi North 3.5 mph - N/A   Scattered Clouds
6:55 PM 89.6 °F 98.2 °F 73.4 °F 59% 30.02 in 10.0 mi Calm Calm - N/A   Scattered Clouds
7:55 PM 80.6 °F 85.4 °F 73.4 °F 79% 30.03 in 10.0 mi Calm Calm - N/A   Scattered Clouds
8:55 PM 78.8 °F - 75.2 °F 89% 30.04 in 10.0 mi Calm Calm - N/A   Scattered Clouds
9:55 PM 77.0 °F - 73.4 °F 89% 30.06 in 10.0 mi Calm Calm - N/A   Scattered Clouds
10:55 PM 77.0 °F - 75.2 °F 94% 30.06 in 10.0 mi Calm Calm - N/A   Scattered Clouds
11:55 PM 75.2 °F - 73.4 °F 94% 30.05 in 10.0 mi Calm Calm - N/A   Partly Cloudy